Location: Bushrod
(6.3500°N, 10.7833°W)
Time: 16:44:02
(UTC+00:00)

CSL-04 Rocket - Pass Details

Date: 17 September 2019
Orbit: 806 x 860 km, 99.0° (Epoch: 20 October)

Event Time Altitude Azimuth Distance (km) Brightness Sun altitude
Rises 19:51:30 0° 175° (S) 3,352 6.7 -18.1°
Reaches altitude 10° 19:53:52 10° 179° (S) 2,426 6.0 -18.7°
Maximum altitude 19:59:08 58° 258° (WSW) 970 4.3 -20.0°
Drops below altitude 10° 20:04:29 10° 336° (NNW) 2,457 6.5 -21.3°
Sets 20:06:54 0° 340° (NNW) 3,398 7.2 -21.9°
